STARLINK-32712 (62433 NORAD) Tracking and Keplerian Element Data

This shows tracking and keplerian element data for the satellite.

Feedback or suggestion? Click here.




ElementValue
Catalog62433
NameSTARLINK-32712
Epoch Orbit681
Epoch Day35.16668981
Epoch Year2025
RAAN34.7008
Inclination53.1596
Eccentricity0.0001263
Argument of Perigee79.0802
Mean Anonmoly4.9787
Mean Motion15.43443198
Decay Rate-0.01542477
L11 62433U 24251B 25035.16668981 -.01542477 00000+0 -37655-1 0 9990
L22 62433 53.1596 34.7008 0001263 79.0802 4.9787 15.43443198 6811



Live tracking and technical data element details for STARLINK-32712 (NORAD 62433). STARLINK-32712 can be tracked NOW for your location showing map with azimuth and elevation plus other details from your city location.







IsCatalogInMostPopularTable: catalog: 62433, numindb: 16
Update: records affected: 1



GetName: 62433 STARLINK-32712

Hit Count: updated at: Sun, 18 May 2025 23:47:06 GMT